Appleton, WI

7:32 PM CST on December 13, 2019 (GMT -0600)
Outagamie County Regional

Weather History for KATW - October, 2019

Change the Weather History Date:

Tuesday, October 22, 2019

  Actual Average Record
Temperature  
Mean Temperature 46 °F -  
Max Temperature 50 °F 55 °F 79 °F (1963)
Min Temperature 41 °F 37 °F 23 °F (1997)
Degree Days  
Heating Degree Days 20    
Moisture  
Dew Point 38 °F    
Average Humidity 78    
Maximum Humidity 100    
Minimum Humidity 58    
Precipitation  
Precipitation 0.04 in - - ()
Sea Level Pressure  
Sea Level Pressure 29.36 in    
Wind  
Wind Speed 16 mph ()    
Max Wind Speed 23 mph    
Max Gust Speed 34 mph    
Visibility 8.1 miles    
Events Rain    
Averages and records for this station are not official NWS values.
T = Trace of Precipitation, MM = Missing Value Source: Averaged Metar Reports

Daily Weather History Graph

Daily Weather History Graph

Search for Another Location

Airport or City:

Astronomy

Oct. 22, 2019 Rise Set
Actual Time 7:17 AM CDT 5:58 PM CDT
Civil Twilight 6:48 AM CDT 6:28 PM CDT
Nautical Twilight 6:14 AM CDT 7:02 PM CDT
Astronomical Twilight 5:40 AM CDT 7:35 PM CDT
Moon 12:08 AM CDT (10/22) 3:25 PM CDT (10/22)
Length of Visible Light 11h 40m
Length of Day
10h 41m
Last Quarter, 37% of the Moon is Illuminated
Oct 22
Last Quarter
Oct 27
New
Nov 4
First Quarter
Nov 12
Full
Nov 19
Last Quarter

Hourly Weather History & Observations

Time (CDT) Temp. Windchill Dew Point Humidity Pressure Visibility Wind Dir Wind Speed Gust Speed Precip Events Conditions
12:15 AM 48.2 °F - 33.8 °F 58% 29.33 in 10.0 mi South 17.3 mph - N/A   Overcast
12:35 AM 46.4 °F 39.5 °F 33.8 °F 62% 29.32 in 10.0 mi South 17.3 mph 21.9 mph N/A   Overcast
12:55 AM 48.2 °F - 35.6 °F 62% 29.32 in 10.0 mi South 18.4 mph 24.2 mph N/A   Overcast
1:15 AM 48.2 °F - 35.6 °F 62% 29.31 in 10.0 mi South 17.3 mph 23.0 mph N/A   Overcast
1:35 AM 48.2 °F - 35.6 °F 62% 29.30 in 10.0 mi South 20.7 mph 24.2 mph N/A   Overcast
1:55 AM 48.2 °F - 35.6 °F 62% 29.29 in 10.0 mi South 19.6 mph 25.3 mph N/A   Overcast
2:15 AM 48.2 °F - 35.6 °F 62% 29.27 in 10.0 mi South 18.4 mph 24.2 mph N/A   Overcast
2:35 AM 50.0 °F - 35.6 °F 58% 29.26 in 10.0 mi South 19.6 mph 26.5 mph N/A   Overcast
2:55 AM 46.4 °F 39.0 °F 37.4 °F 71% 29.26 in 10.0 mi South 19.6 mph 29.9 mph N/A   Drizzle
3:15 AM 46.4 °F 39.5 °F 35.6 °F 66% 29.25 in 10.0 mi SSW 17.3 mph 23.0 mph N/A   Overcast
3:35 AM 44.6 °F 35.9 °F 35.6 °F 71% 29.25 in 7.0 mi SSW 23.0 mph 34.5 mph 0.01 in Rain Light Rain
3:55 AM 44.6 °F 37.8 °F 37.4 °F 76% 29.24 in 10.0 mi South 15.0 mph 23.0 mph 0.01 in   Drizzle
4:15 AM 44.6 °F 37.4 °F 35.6 °F 71% 29.24 in 10.0 mi South 16.1 mph 20.7 mph 0.01 in Rain Rain
4:35 AM 44.6 °F 37.4 °F 35.6 °F 71% 29.23 in 10.0 mi South 16.1 mph - 0.01 in Rain Light Rain
4:55 AM 42.8 °F 35.1 °F 37.4 °F 81% 29.23 in 5.0 mi South 16.1 mph 20.7 mph 0.03 in Rain Light Rain
5:15 AM 42.8 °F 34.0 °F 37.4 °F 81% 29.22 in 7.0 mi South 20.7 mph 26.5 mph N/A Rain Rain
5:20 AM 44.6 °F 36.4 °F 39.2 °F 81% 29.22 in 7.0 mi SSW 20.7 mph 28.8 mph N/A   Overcast
5:45 AM 44.6 °F 36.9 °F 39.2 °F 81% 29.21 in 7.0 mi SSW 18.4 mph 26.5 mph N/A Rain Light Rain
6:45 AM 44.6 °F 36.9 °F 42.8 °F 93% 29.21 in 7.0 mi SSW 18.4 mph 26.5 mph N/A Rain Light Rain
7:45 AM 42.8 °F 34.8 °F 42.8 °F 100% 29.23 in 7.0 mi SW 17.3 mph 25.3 mph N/A Rain Light Rain
8:15 AM 42.8 °F 35.1 °F 42.8 °F 100% 29.24 in 3.0 mi SW 16.1 mph 25.3 mph N/A   Overcast
8:45 AM 42.8 °F 35.1 °F 42.8 °F 100% 29.26 in 5.0 mi SW 16.1 mph 28.8 mph N/A   Mist
9:10 AM 42.8 °F 35.1 °F 42.8 °F 100% 29.27 in 2.0 mi SW 16.1 mph 24.2 mph N/A Rain Light Rain
9:45 AM 44.6 °F 37.4 °F 44.6 °F 100% 29.28 in 2.0 mi SW 16.1 mph 23.0 mph N/A   Light Drizzle
10:45 AM 44.6 °F 36.9 °F 44.6 °F 100% 29.30 in 2.0 mi SW 18.4 mph 25.3 mph N/A   Light Drizzle
11:10 AM 44.6 °F 36.9 °F 42.8 °F 93% 29.32 in 7.0 mi SW 18.4 mph 27.6 mph N/A   Overcast
11:45 AM 44.6 °F 37.2 °F 42.8 °F 93% 29.35 in 7.0 mi WSW 17.3 mph 25.3 mph N/A   Overcast
12:45 PM 44.6 °F 37.2 °F 42.8 °F 93% 29.36 in 10.0 mi WSW 17.3 mph - N/A   Overcast
1:45 PM 44.6 °F 37.2 °F 42.8 °F 93% 29.38 in 7.0 mi WSW 17.3 mph 28.8 mph N/A   Overcast
2:45 PM 42.8 °F 35.1 °F 39.2 °F 87% 29.41 in 7.0 mi WSW 16.1 mph 28.8 mph N/A   Overcast
3:45 PM 42.8 °F 34.8 °F 39.2 °F 87% 29.44 in 7.0 mi WSW 17.3 mph 28.8 mph N/A   Overcast
4:45 PM 42.8 °F 34.8 °F 37.4 °F 81% 29.47 in 7.0 mi WSW 17.3 mph 25.3 mph N/A   Overcast
5:45 PM 42.8 °F 34.8 °F 35.6 °F 76% 29.50 in 10.0 mi WSW 17.3 mph 23.0 mph N/A   Overcast
6:45 PM 42.8 °F 35.8 °F 33.8 °F 70% 29.53 in 10.0 mi WSW 13.8 mph 25.3 mph N/A   Overcast
7:45 PM 41.0 °F 32.8 °F 35.6 °F 81% 29.55 in 10.0 mi WSW 16.1 mph 24.2 mph N/A   Overcast
8:45 PM 41.0 °F 32.8 °F 37.4 °F 87% 29.56 in 10.0 mi WSW 16.1 mph 21.9 mph N/A   Overcast
9:45 PM 42.8 °F 34.5 °F 33.8 °F 70% 29.58 in 10.0 mi West 18.4 mph 29.9 mph N/A   Overcast
10:45 PM 41.0 °F 32.2 °F 32.0 °F 70% 29.60 in 7.0 mi West 18.4 mph 32.2 mph N/A Rain Light Rain
10:55 PM 41.0 °F 32.8 °F 32.0 °F 70% 29.60 in 10.0 mi West 16.1 mph 21.9 mph N/A   Overcast
11:15 PM 41.0 °F 33.1 °F 32.0 °F 70% 29.60 in 10.0 mi WSW 15.0 mph - N/A   Overcast
11:35 PM 41.0 °F 33.1 °F 32.0 °F 70% 29.60 in 10.0 mi WSW 15.0 mph 21.9 mph N/A   Overcast
11:55 PM 41.0 °F 33.9 °F 32.0 °F 70% 29.60 in 10.0 mi WSW 12.7 mph 19.6 mph N/A   Overcast